Okean O Rocket - Orbit

View from above orbital plane
View from above orbital plane
View from above satellite
View from above satellite

Ground track
Ground track

The orbit data is extracted from the following two-line orbital elements,

1 25861U 99039B   13139.88398233  .00000345  00000-0  55713-4 0  3242
2 25861 097.8942 100.7508 0015839 201.3661 175.8026 14.77278493745792
Epoch (UTC): 19 May 2013 21:12:56
Eccentricity: 0.0015839
inclination: 97.8942°
perigee height: 627 km
apogee height: 649 km
right ascension of ascending node: 100.7508°
argument of perigee: 201.3661°
revolutions per day: 14.77278493
mean anomaly at epoch: 175.8026°
orbit number at epoch: 74579

The dashed part of the orbit path shows where the satellite is in the earth's shadow,  

Developed and maintained by Chris Peat, Heavens-Above GmbH. Please read the updated FAQ before sending e-mail. Imprint. DLR